This demonstration page uses our WeatherBlox Daily Observations layout. Learn more.

Left ArrowRight Arrow

Hourly Observations for July 21, 2016

Temp ( °F °C ) Dew Point ( °F °C ) Humidity (%) Winds ( mph kmh ) Pressure ( in mb ) Visibility ( mi km ) Precip ( " mm )
12:15 am 00:15 Clear 77 25.1 64 18 65 65 S 9 15 29.85 1011 10 16 N/A
12:35 am 00:35 Clear 77 25.1 64 17.7 64 64 S 8 13 29.85 1011 10 16 N/A
12:55 am 00:55 Clear 77 25.1 64 17.7 64 64 S 10 17 29.85 1011 10 16 N/A
1:15 am 01:15 Clear 78 25.6 64 17.6 61 61 S 12 19 29.85 1011 10 16 N/A
1:35 am 01:35 Clear 78 25.7 64 17.5 61 61 S 12 19 29.85 1011 10 16 N/A
1:55 am 01:55 Clear 78 25.3 64 17.6 62 62 SSW 12 19 29.85 1011 10 16 N/A
2:15 am 02:15 Clear 78 25.5 64 17.5 61 61 SSW 12 19 29.85 1011 10 16 N/A
2:35 am 02:35 Clear 76 24.6 64 17.7 66 66 SSW 12 19 29.88 1012 10 16 N/A
2:55 am 02:55 Clear 76 24.6 64 17.7 66 66 S 9 15 29.85 1011 10 16 N/A
3:15 am 03:15 Clear 76 24.5 64 17.7 66 66 S 12 19 29.85 1011 10 16 N/A
3:35 am 03:35 Clear 76 24.5 64 17.7 66 66 S 9 15 29.85 1011 10 16 N/A
3:55 am 03:55 Clear 75 23.8 64 17.8 69 69 SW 5 7 29.85 1011 10 16 N/A
4:15 am 04:15 Clear 74 23.2 64 18 73 73 SSW 8 13 29.85 1011 10 16 N/A
4:35 am 04:35 Clear 74 23.2 64 18 73 73 S 8 13 29.85 1011 10 16 N/A
4:55 am 04:55 Clear 74 23.1 64 18 73 73 S 8 13 29.85 1011 10 16 N/A
5:15 am 05:15 Clear 73 23 64 18 74 74 S 8 13 29.85 1011 10 16 N/A
5:35 am 05:35 Clear 73 22.5 65 18.1 76 76 SSW 7 11 29.88 1012 10 16 N/A
5:55 am 05:55 Clear 72 22.3 65 18.3 78 78 S 7 11 29.88 1012 10 16 N/A
6:15 am 06:15 Clear 73 22.5 65 18.1 76 76 SSW 7 11 29.88 1012 10 16 N/A
6:35 am 06:35 Sunny 73 22.5 65 18.1 76 76 SSW 9 15 29.88 1012 10 16 N/A
6:55 am 06:55 Sunny 73 22.7 64 18 75 75 SSW 8 13 29.88 1012 10 16 N/A
7:15 am 07:15 Sunny 74 23.2 64 17.8 72 72 SSW 8 13 29.85 1011 10 16 N/A
7:35 am 07:35 Sunny 76 24.2 64 17.8 68 68 SSW 8 13 29.85 1011 10 16 N/A
7:55 am 07:55 Sunny 77 24.8 64 17.9 66 66 SSW 9 15 29.85 1011 10 16 N/A
8:15 am 08:15 Sunny 76 24.7 65 18.3 68 68 SW 6 9 29.88 1012 10 16 N/A
8:35 am 08:35 Sunny 78 25.7 66 18.7 65 65 SW 8 13 29.88 1012 10 16 N/A
8:55 am 08:55 Sunny 80 26.4 66 18.8 63 63 SW 8 13 29.88 1012 10 16 N/A
9:15 am 09:15 Sunny 80 26.5 66 19 63 63 SW 8 13 29.88 1012 10 16 N/A
9:35 am 09:35 Sunny 82 27.9 66 18.8 58 58 SW 8 13 29.85 1011 10 16 N/A
9:55 am 09:55 Sunny 83 28.1 66 19 58 58 SW 10 17 29.85 1011 10 16 N/A
10:15 am 10:15 Sunny 84 28.8 67 19.3 56 56 SSW 9 15 29.85 1011 10 16 N/A
10:35 am 10:35 Sunny 85 29.5 67 19.7 56 56 SW 8 13 29.85 1011 10 16 N/A
10:55 am 10:55 Sunny 85 29.6 67 19.6 55 55 SSW 7 11 29.85 1011 10 16 N/A
11:15 am 11:15 Sunny 85 29.7 67 19.5 54 54 SSW 9 15 29.85 1011 10 16 N/A
11:35 am 11:35 Sunny 86 30.2 66 19.1 51 51 SW 8 13 29.85 1011 10 16 N/A
11:55 am 11:55 Sunny 87 30.5 67 19.6 52 52 SW 6 9 29.85 1011 10 16 N/A
12:15 pm 12:15 Sunny 88 30.9 68 19.9 52 52 SW 3 6 29.83 1010 10 16 N/A
12:55 pm 12:55 Sunny 89 31.5 68 20.1 51 51 WSW 6 9 29.83 1010 10 16 N/A
1:15 pm 13:15 Sunny 90 32.2 69 20.4 50 50 S 8 13 29.83 1010 10 16 N/A
1:35 pm 13:35 Sunny 91 32.5 68 19.9 47 47 SSE 8 13 29.83 1010 10 16 N/A
1:55 pm 13:55 Sunny 91 33 68 19.8 46 46 SSE 8 13 29.83 1010 10 16 N/A
2:15 pm 14:15 Sunny 92 33.6 66 19 42 42 S 9 15 29.83 1010 10 16 N/A
2:35 pm 14:35 Sunny 92 33.3 67 19.6 44 44 SSE 9 15 29.83 1010 10 16 N/A
2:55 pm 14:55 Sunny 93 34.1 68 19.8 43 43 SSE 8 13 29.83 1010 10 16 N/A
3:15 pm 15:15 Sunny 94 34.2 67 19.7 42 42 S 8 13 29.77 1008 10 16 N/A
3:35 pm 15:35 Sunny 94 34.7 68 20.1 42 42 SSE 7 11 29.77 1008 10 16 N/A
3:55 pm 15:55 Sunny 94 34.5 69 20.4 44 44 S 9 15 29.77 1008 10 16 N/A
4:15 pm 16:15 Sunny 95 35.2 67 19.7 40 40 SSE 8 13 29.77 1008 10 16 N/A
4:35 pm 16:35 Sunny 96 35.4 67 19.6 39 39 S 8 13 29.77 1008 10 16 N/A
4:55 pm 16:55 Sunny 96 35.8 67 19.4 38 38 S 10 17 29.74 1007 10 16 N/A
5:15 pm 17:15 Sunny 97 36 68 19.9 39 39 S 8 13 29.74 1007 10 16 N/A
5:35 pm 17:35 Sunny 97 36.1 67 19.6 38 38 S 9 15 29.74 1007 10 16 N/A
5:55 pm 17:55 Sunny 97 36.1 67 19.3 37 37 S 8 13 29.74 1007 10 16 N/A
6:15 pm 18:15 Sunny 98 36.5 66 18.8 35 35 S 6 9 29.74 1007 10 16 N/A
6:35 pm 18:35 Sunny 97 36.2 66 19.1 37 37 SSW 6 9 29.74 1007 10 16 N/A
6:55 pm 18:55 Sunny 97 36 69 20.3 40 40 S 3 6 29.74 1007 10 16 N/A
7:15 pm 19:15 Sunny 96 35.5 69 20.6 42 42 N N/A 29.74 1007 10 16 N/A
7:35 pm 19:35 Sunny 95 35.2 69 20.4 42 42 N N/A 29.74 1007 10 16 N/A
7:55 pm 19:55 Sunny 94 34.3 74 23.1 52 52 N N/A 29.74 1007 10 16 N/A
8:15 pm 20:15 Sunny 90 32.2 76 24.3 63 63 N N/A 29.77 1008 10 16 N/A
8:35 pm 20:35 Sunny 89 31.7 76 24.7 66 66 NE 3 6 29.77 1008 10 16 N/A
8:55 pm 20:55 Sunny 87 30.3 78 25.6 76 76 N N/A 29.77 1008 10 16 N/A
9:15 pm 21:15 Clear 84 29.1 78 25.7 82 82 N N/A 29.80 1009 10 16 N/A
9:35 pm 21:35 Clear 83 28.6 77 25.1 81 81 N N/A 29.80 1009 10 16 N/A
9:55 pm 21:55 Clear 82 27.9 76 24.7 83 83 N N/A 29.83 1010 10 16 N/A
10:15 pm 22:15 Clear 82 27.7 76 24.4 82 82 N N/A 29.83 1010 10 16 N/A
10:35 pm 22:35 Clear 80 26.5 76 24.2 87 87 N N/A 29.83 1010 10 16 N/A
10:55 pm 22:55 Clear 79 25.9 75 24.1 90 90 NNW 3 6 29.85 1011 7 11 N/A
11:15 pm 23:15 Clear 79 26.2 75 24 88 88 N N/A 29.85 1011 10 16 N/A
11:35 pm 23:35 Clear 79 26 75 23.8 88 88 N 3 6 29.85 1011 10 16 N/A
11:55 pm 23:55 Clear 77 25.1 73 23 88 88 N N/A 29.85 1011 10 16 N/A

Powered by AerisWeather